| time (UTC) | temp C | wind direction | speed KPH | gust KPH | rain 1hr cm | rain 24hr cm | rain mn cm | humidity % | barometer mb |
| 20260504110612 | 10 | 223 | 3.2 | 9.7 | 0.00 | 0.00 | 0.00 | 70 | 1018.0 |
| 20260504110116 | 10 | 185 | 1.6 | 9.7 | 0.00 | 0.00 | 0.00 | 71 | 1018.0 |
| 20260504100211 | 11 | 231 | 3.2 | 17.7 | 0.00 | 0.00 | 0.00 | 72 | 1018.0 |
| 20260504081537 | 11 | 215 | 3.2 | 8.0 | 0.00 | 0.00 | 0.00 | 69 | 1017.9 |
| 20260504081227 | 11 | 232 | 3.2 | 6.4 | 0.00 | 0.00 | 0.00 | 69 | 1018.0 |
| 20260504080506 | 11 | 212 | 3.2 | 12.9 | 0.00 | 0.00 | 0.00 | 70 | 1018.0 |
| 20260504070117 | 10 | 146 | 6.4 | 6.4 | 0.00 | 0.00 | 0.00 | 72 | 1018.5 |
| 20260504060233 | 8 | 196 | 0.0 | 3.2 | 0.00 | 0.00 | 0.00 | 75 | 1018.2 |
| 20260504050332 | 5 | 196 | 1.6 | 3.2 | 0.00 | 0.00 | 0.00 | 89 | 1018.2 |
| 20260504045830 | 5 | 81 | 0.0 | 3.2 | 0.00 | 0.00 | 0.00 | 88 | 1018.3 |
| 20260504045300 | 5 | 188 | 0.0 | 3.2 | 0.00 | 0.00 | 0.00 | 89 | 1018.3 |
| 20260504044950 | 5 | 70 | 0.0 | 3.2 | 0.00 | 0.00 | 0.00 | 90 | 1018.4 |
| 20260504044232 | 4 | 107 | 1.6 | 3.2 | 0.00 | 0.00 | 0.00 | 91 | 1018.2 |
| 20260504043920 | 4 | 48 | 0.0 | 3.2 | 0.00 | 0.00 | 0.00 | 91 | 1018.1 |
| 20260504043130 | 4 | 75 | 0.0 | 3.2 | 0.00 | 0.00 | 0.00 | 90 | 1018.2 |
| 20260504042629 | 4 | 57 | 0.0 | 3.2 | 0.00 | 0.00 | 0.00 | 90 | 1018.4 |
| 20260504042059 | 4 | 69 | 1.6 | 3.2 | 0.00 | 0.00 | 0.00 | 91 | 1018.4 |
| 20260504041530 | 4 | 211 | 1.6 | 3.2 | 0.00 | 0.00 | 0.00 | 91 | 1018.4 |
| 20260504041309 | 4 | 54 | 0.0 | 3.2 | 0.00 | 0.00 | 0.00 | 92 | 1018.1 |
| 20260504040458 | 4 | 64 | 1.6 | 3.2 | 0.00 | 0.00 | 0.00 | 93 | 1018.3 |
| 20260504035929 | 3 | 50 | 1.6 | 3.2 | 0.00 | 0.00 | 0.00 | 94 | 1018.2 |
| 20260504035429 | 3 | 92 | 1.6 | 3.2 | 0.00 | 0.00 | 0.00 | 94 | 1018.4 |
| 20260504034858 | 3 | 115 | 0.0 | 3.2 | 0.00 | 0.00 | 0.00 | 95 | 1018.2 |
| 20260504034329 | 3 | 44 | 1.6 | 3.2 | 0.00 | 0.00 | 0.00 | 95 | 1017.9 |
| 20260504033829 | 3 | 72 | 3.2 | 3.2 | 0.00 | 0.00 | 0.00 | 95 | 1018.0 |
| 20260504033259 | 3 | 72 | 1.6 | 3.2 | 0.00 | 0.00 | 0.00 | 95 | 1018.1 |
| 20260504032728 | 3 | 77 | 0.0 | 3.2 | 0.00 | 0.00 | 0.00 | 95 | 1017.8 |
| 20260504032227 | 3 | 116 | 3.2 | 3.2 | 0.00 | 0.00 | 0.00 | 95 | 1018.0 |
| 20260504031127 | 3 | 105 | 0.0 | 3.2 | 0.00 | 0.00 | 0.00 | 94 | 1017.9 |
| 20260504030557 | 3 | 64 | 3.2 | 4.8 | 0.00 | 0.00 | 0.00 | 93 | 1017.6 |
| 20260504025527 | 3 | 42 | 0.0 | 4.8 | 0.00 | 0.00 | 0.00 | 92 | 1017.8 |
| 20260504024957 | 3 | 78 | 3.2 | 4.8 | 0.00 | 0.00 | 0.00 | 92 | 1017.7 |
| 20260504024457 | 3 | 55 | 1.6 | 4.8 | 0.00 | 0.00 | 0.00 | 92 | 1017.7 |
| 20260504024145 | 3 | 71 | 0.0 | 3.2 | 0.00 | 0.00 | 0.00 | 92 | 1017.5 |
| 20260504023357 | 3 | 140 | 1.6 | 4.8 | 0.00 | 0.00 | 0.00 | 91 | 1017.7 |
| 20260504022856 | 3 | 70 | 1.6 | 4.8 | 0.00 | 0.00 | 0.00 | 91 | 1017.6 |
| 20260504022327 | 4 | 105 | 0.0 | 3.2 | 0.00 | 0.00 | 0.00 | 90 | 1017.7 |
| 20260504021826 | 3 | 93 | 0.0 | 3.2 | 0.00 | 0.00 | 0.00 | 90 | 1017.8 |
| 20260504021308 | 3 | 62 | 1.6 | 3.2 | 0.00 | 0.00 | 0.00 | 89 | 1017.7 |
| 20260504020725 | 4 | 125 | 3.2 | 3.2 | 0.00 | 0.00 | 0.00 | 88 | 1017.6 |
| 20260504020226 | 4 | 92 | 0.0 | 3.2 | 0.00 | 0.00 | 0.00 | 87 | 1017.7 |
| 20260504015914 | 4 | 81 | 0.0 | 3.2 | 0.00 | 0.00 | 0.00 | 87 | 1017.5 |
| 20260504015126 | 5 | 105 | 0.0 | 3.2 | 0.00 | 0.00 | 0.00 | 86 | 1017.7 |
| 20260504014627 | 4 | 124 | 0.0 | 3.2 | 0.00 | 0.00 | 0.00 | 85 | 1017.4 |
| 20260504014056 | 5 | 98 | 0.0 | 3.2 | 0.00 | 0.00 | 0.00 | 84 | 1017.3 |
| 20260504013525 | 5 | 93 | 1.6 | 4.8 | 0.00 | 0.00 | 0.00 | 82 | 1017.5 |
| 20260504013029 | 5 | 106 | 3.2 | 4.8 | 0.00 | 0.00 | 0.00 | 82 | 1017.5 |
| 20260504012507 | 5 | 119 | 0.0 | 3.2 | 0.00 | 0.00 | 0.00 | 81 | 1017.3 |
| 20260504012141 | 6 | 100 | 1.6 | 4.8 | 0.00 | 0.00 | 0.00 | 81 | 1017.3 |
| 20260504011424 | 6 | 56 | 1.6 | 4.8 | 0.00 | 0.00 | 0.00 | 79 | 1017.4 |
| 20260504010854 | 6 | 120 | 1.6 | 3.2 | 0.00 | 0.00 | 0.00 | 79 | 1017.2 |
| 20260504010325 | 6 | 99 | 0.0 | 3.2 | 0.00 | 0.00 | 0.00 | 78 | 1017.3 |
| 20260504005823 | 6 | 77 | 0.0 | 3.2 | 0.00 | 0.00 | 0.00 | 75 | 1017.3 |
| 20260504005253 | 6 | 76 | 1.6 | 3.2 | 0.00 | 0.00 | 0.00 | 74 | 1017.2 |
| 20260504004723 | 7 | 130 | 0.0 | 3.2 | 0.00 | 0.00 | 0.00 | 73 | 1017.2 |
| 20260504004222 | 7 | 90 | 0.0 | 3.2 | 0.00 | 0.00 | 0.00 | 72 | 1017.1 |
| 20260504003653 | 7 | 127 | 0.0 | 3.2 | 0.00 | 0.00 | 0.00 | 70 | 1017.0 |
| 20260504003122 | 7 | 123 | 0.0 | 3.2 | 0.00 | 0.00 | 0.00 | 71 | 1017.0 |
| 20260504002622 | 8 | 139 | 0.0 | 3.2 | 0.00 | 0.00 | 0.00 | 67 | 1016.8 |
| 20260504002053 | 8 | 72 | 0.0 | 3.2 | 0.00 | 0.00 | 0.00 | 67 | 1016.8 |
| 20260504001524 | 9 | 133 | 0.0 | 3.2 | 0.00 | 0.00 | 0.00 | 65 | 1016.9 |
| 20260504001024 | 9 | 116 | 0.0 | 3.2 | 0.00 | 0.00 | 0.00 | 64 | 1016.7 |
| 20260504000451 | 10 | 106 | 1.6 | 3.2 | 0.00 | 0.00 | 0.00 | 63 | 1016.7 |
| 20260503235921 | 10 | 138 | 0.0 | 3.2 | 0.00 | 0.00 | 0.00 | 59 | 1016.7 |
| 20260503235422 | 11 | 108 | 1.6 | 3.2 | 0.00 | 0.00 | 0.00 | 58 | 1016.6 |
| 20260503234852 | 11 | 180 | 3.2 | 3.2 | 0.00 | 0.00 | 0.00 | 56 | 1016.7 |
| 20260503234321 | 12 | 136 | 0.0 | 3.2 | 0.00 | 0.00 | 0.00 | 52 | 1016.4 |
| 20260503233822 | 12 | 180 | 0.0 | 3.2 | 0.00 | 0.00 | 0.00 | 51 | 1016.2 |
| 20260503233250 | 13 | 105 | 0.0 | 4.8 | 0.00 | 0.00 | 0.00 | 48 | 1016.5 |
| 20260503232720 | 14 | 121 | 0.0 | 8.0 | 0.00 | 0.00 | 0.00 | 45 | 1016.2 |
| 20260503232444 | 15 | 197 | 3.2 | 9.7 | 0.00 | 0.00 | 0.00 | 37 | 1016.3 |
| 20260503231650 | 15 | 298 | 4.8 | 9.7 | 0.00 | 0.00 | 0.00 | 36 | 1016.2 |
| 20260503230620 | 15 | 307 | 4.8 | 11.3 | 0.00 | 0.00 | 0.00 | 36 | 1016.4 |
| 20260503225519 | 15 | 352 | 0.0 | 16.1 | 0.00 | 0.00 | 0.00 | 36 | 1016.4 |
| 20260503225019 | 16 | 213 | 6.4 | 17.7 | 0.00 | 0.00 | 0.00 | 34 | 1016.1 |
| 20260503224449 | 16 | 144 | 6.4 | 17.7 | 0.00 | 0.00 | 0.00 | 34 | 1016.4 |
| 20260503223918 | 16 | 319 | 8.0 | 12.9 | 0.00 | 0.00 | 0.00 | 35 | 1016.4 |
| 20260503223421 | 16 | 244 | 1.6 | 17.7 | 0.00 | 0.00 | 0.00 | 33 | 1016.3 |
| 20260503222848 | 16 | 308 | 0.0 | 17.7 | 0.00 | 0.00 | 0.00 | 33 | 1016.2 |
| 20260503222321 | 16 | 195 | 3.2 | 17.7 | 0.00 | 0.00 | 0.00 | 34 | 1016.2 |
| 20260503221820 | 17 | 291 | 6.4 | 14.5 | 0.00 | 0.00 | 0.00 | 32 | 1016.1 |
| 20260503221247 | 16 | 30 | 6.4 | 14.5 | 0.00 | 0.00 | 0.00 | 32 | 1016.1 |
| 20260503220724 | 17 | 231 | 1.6 | 16.1 | 0.00 | 0.00 | 0.00 | 34 | 1016.5 |
| 20260503220444 | 17 | 352 | 3.2 | 16.1 | 0.00 | 0.00 | 0.00 | 33 | 1016.4 |
| 20260503215648 | 17 | 302 | 3.2 | 16.1 | 0.00 | 0.00 | 0.00 | 33 | 1016.4 |
| 20260503215119 | 16 | 146 | 4.8 | 16.1 | 0.00 | 0.00 | 0.00 | 33 | 1016.3 |
| 20260503214841 | 16 | 234 | 6.4 | 11.3 | 0.00 | 0.00 | 0.00 | 34 | 1016.2 |
| 20260503214047 | 17 | 294 | 0.0 | 19.3 | 0.00 | 0.00 | 0.00 | 32 | 1016.3 |
| 20260503213520 | 16 | 268 | 8.0 | 22.5 | 0.00 | 0.00 | 0.00 | 34 | 1016.2 |
| 20260503213017 | 16 | 231 | 9.7 | 22.5 | 0.00 | 0.00 | 0.00 | 33 | 1016.3 |
| 20260503212447 | 16 | 218 | 9.7 | 24.1 | 0.00 | 0.00 | 0.00 | 34 | 1016.3 |
| 20260503211416 | 16 | 276 | 8.0 | 32.2 | 0.00 | 0.00 | 0.00 | 34 | 1016.4 |
| 20260503210846 | 16 | 204 | 9.7 | 16.1 | 0.00 | 0.00 | 0.00 | 35 | 1016.4 |
| 20260503210345 | 16 | 280 | 6.4 | 16.1 | 0.00 | 0.00 | 0.00 | 33 | 1016.4 |
| 20260503210037 | 16 | 230 | 12.9 | 22.5 | 0.00 | 0.00 | 0.00 | 37 | 1016.4 |
| 20260503205507 | 16 | 266 | 4.8 | 22.5 | 0.00 | 0.00 | 0.00 | 34 | 1016.3 |
| 20260503204745 | 16 | 51 | 3.2 | 20.9 | 0.00 | 0.00 | 0.00 | 35 | 1016.3 |
| 20260503204215 | 16 | 273 | 9.7 | 25.7 | 0.00 | 0.00 | 0.00 | 35 | 1016.4 |
| 20260503203646 | 16 | 238 | 4.8 | 27.4 | 0.00 | 0.00 | 0.00 | 36 | 1016.7 |
| 20260503203411 | 15 | 352 | 9.7 | 27.4 | 0.00 | 0.00 | 0.00 | 39 | 1016.6 |
| 20260503202616 | 16 | 193 | 6.4 | 22.5 | 0.00 | 0.00 | 0.00 | 36 | 1016.9 |
| 20260503202045 | 16 | 354 | 6.4 | 22.5 | 0.00 | 0.00 | 0.00 | 35 | 1016.7 |
| 20260503201544 | 15 | 204 | 14.5 | 22.5 | 0.00 | 0.00 | 0.00 | 37 | 1016.9 |
| 20260503201016 | 16 | 249 | 8.0 | 25.7 | 0.00 | 0.00 | 0.00 | 35 | 1016.8 |
| 20260503200444 | 15 | 245 | 9.7 | 25.7 | 0.00 | 0.00 | 0.00 | 35 | 1016.9 |
| 20260503195944 | 15 | 222 | 9.7 | 25.7 | 0.00 | 0.00 | 0.00 | 38 | 1017.0 |
| 20260503195413 | 16 | 204 | 11.3 | 27.4 | 0.00 | 0.00 | 0.00 | 38 | 1017.3 |
| 20260503194844 | 15 | 269 | 3.2 | 27.4 | 0.00 | 0.00 | 0.00 | 38 | 1017.0 |
| 20260503194344 | 15 | 251 | 4.8 | 25.7 | 0.00 | 0.00 | 0.00 | 36 | 1017.1 |
| 20260503193813 | 15 | 291 | 16.1 | 20.9 | 0.00 | 0.00 | 0.00 | 36 | 1017.1 |
| 20260503193243 | 16 | 289 | 3.2 | 24.1 | 0.00 | 0.00 | 0.00 | 36 | 1017.3 |
| 20260503192743 | 15 | 327 | 20.9 | 35.4 | 0.00 | 0.00 | 0.00 | 38 | 1017.2 |
| 20260503192213 | 14 | 346 | 8.0 | 35.4 | 0.00 | 0.00 | 0.00 | 36 | 1017.5 |
| 20260503191644 | 15 | 15 | 6.4 | 30.6 | 0.00 | 0.00 | 0.00 | 37 | 1017.5 |
| 20260503191143 | 15 | 260 | 8.0 | 30.6 | 0.00 | 0.00 | 0.00 | 37 | 1017.4 |
| 20260503190612 | 15 | 287 | 16.1 | 22.5 | 0.00 | 0.00 | 0.00 | 37 | 1017.7 |
| 20260503190055 | 15 | 286 | 17.7 | 29.0 | 0.00 | 0.00 | 0.00 | 41 | 1017.8 |
| 20260503185543 | 15 | 271 | 4.8 | 37.0 | 0.00 | 0.00 | 0.00 | 39 | 1017.9 |
| 20260503185012 | 14 | 207 | 11.3 | 37.0 | 0.00 | 0.00 | 0.00 | 41 | 1017.8 |
| 20260503184700 | 15 | 300 | 8.0 | 22.5 | 0.00 | 0.00 | 0.00 | 39 | 1018.0 |
| 20260503183943 | 15 | 204 | 9.7 | 27.4 | 0.00 | 0.00 | 0.00 | 41 | 1018.1 |
| 20260503183411 | 14 | 290 | 3.2 | 27.4 | 0.00 | 0.00 | 0.00 | 38 | 1017.9 |
| 20260503182840 | 15 | 32 | 6.4 | 20.9 | 0.00 | 0.00 | 0.00 | 39 | 1018.1 |
| 20260503182341 | 14 | 221 | 16.1 | 27.4 | 0.00 | 0.00 | 0.00 | 37 | 1018.0 |
| 20260503181811 | 14 | 355 | 3.2 | 27.4 | 0.00 | 0.00 | 0.00 | 41 | 1018.2 |
| 20260503181241 | 13 | 209 | 11.3 | 24.1 | 0.00 | 0.00 | 0.00 | 38 | 1018.2 |
| 20260503180740 | 14 | 264 | 4.8 | 24.1 | 0.00 | 0.00 | 0.00 | 40 | 1018.0 |
| 20260503180211 | 13 | 290 | 6.4 | 27.4 | 0.00 | 0.00 | 0.00 | 40 | 1018.1 |
| 20260503175641 | 13 | 330 | 6.4 | 27.4 | 0.00 | 0.00 | 0.00 | 42 | 1018.3 |
| 20260503175139 | 14 | 218 | 4.8 | 30.6 | 0.00 | 0.00 | 0.00 | 39 | 1018.2 |
| 20260503174610 | 13 | 15 | 9.7 | 30.6 | 0.00 | 0.00 | 0.00 | 40 | 1018.3 |
| 20260503174040 | 13 | 287 | 6.4 | 27.4 | 0.00 | 0.00 | 0.00 | 38 | 1018.2 |
| 20260503173804 | 13 | 282 | 4.8 | 25.7 | 0.00 | 0.00 | 0.00 | 39 | 1018.3 |
| 20260503173009 | 13 | 315 | 6.4 | 25.7 | 0.00 | 0.00 | 0.00 | 40 | 1018.0 |
| 20260503172439 | 13 | 2 | 4.8 | 20.9 | 0.00 | 0.00 | 0.00 | 40 | 1018.0 |
| 20260503171940 | 13 | 201 | 3.2 | 24.1 | 0.00 | 0.00 | 0.00 | 41 | 1018.3 |
| 20260503171409 | 13 | 348 | 12.9 | 29.0 | 0.00 | 0.00 | 0.00 | 38 | 1018.3 |
| 20260503170840 | 13 | 242 | 12.9 | 29.0 | 0.00 | 0.00 | 0.00 | 39 | 1018.6 |
| 20260503170338 | 12 | 5 | 14.5 | 29.0 | 0.00 | 0.00 | 0.00 | 39 | 1018.3 |
| 20260503150824 | 11 | 296 | 6.4 | 22.5 | 0.00 | 0.00 | 0.00 | 41 | 1019.1 |
| 20260503150119 | 11 | 210 | 4.8 | 24.1 | 0.00 | 0.00 | 0.00 | 43 | 1019.2 |
| 20260503140203 | 10 | 11 | 9.7 | 33.8 | 0.00 | 0.00 | 0.00 | 49 | 1019.4 |
| 20260503131402 | 8 | 230 | 6.4 | 24.1 | 0.00 | 0.00 | 0.00 | 56 | 1019.6 |
| 20260503130902 | 8 | 224 | 19.3 | 24.1 | 0.00 | 0.00 | 0.00 | 56 | 1019.4 |
| 20260503130331 | 8 | 270 | 11.3 | 24.1 | 0.00 | 0.00 | 0.00 | 56 | 1019.6 |